Location: 22
(39.7117°N, 89.5929°W)
Time: 09:20:47
(UTC-05:00)

S-56A Canister/Altair - Pass Details

Date: 16 February 2023
Orbit: 638 x 2493 km, 38.9° (Epoch: 25 March)

Event Time Altitude Azimuth Distance (km) Brightness Sun altitude
Rises 12:47:19 0° 271° (W) 2,938 10.6 37.4°
Reaches altitude 10° 12:50:19 10° 248° (WSW) 2,093 10.3 37.3°
Maximum altitude 12:53:10 16° 210° (SSW) 1,841 10.8 37.2°
Drops below altitude 10° 12:56:21 10° 174° (S) 2,395 11.2 37.1°
Sets 13:00:11 0° 153° (SSE) 3,617 11.6 36.9°
